West Lincoln

*Note: All times are displayed in the local standard time of the station location.
**Rain - Equipment is designed to accurately record liquid precipitation; under conditions when precipitation is not in liquid form, the data displayed may not properly reflect rainfall values.

Date Max Temp
(°C)
Min Temp
(°C)
Avg Temp
(°C)
Rain (mm) Avg RH (%)
Fri, Feb 15, 2019 3.3 -5.1 0.0 2.8 79.6
Thu, Feb 14, 2019 2.9 -5.4 -1.7 0.0 77.4
Wed, Feb 13, 2019 0.1 -5.4 -3.5 1.2 85.6
Tue, Feb 12, 2019 1.4 -5.9 -2.8 0.2 91.4
Mon, Feb 11, 2019 -2.6 -5.4 -4.1 0.0 77.1
Sun, Feb 10, 2019 -3.1 -10.7 -6.7 0.0 76.5
Sat, Feb 09, 2019 -5.0 -11.0 -7.8 0.0 69.3
DateTime Avg Temp (°C) Rain (mm) RH (%)
Sat, Feb 16, 2019 16:00 -1.9 0.0 56.1
Sat, Feb 16, 2019 15:00 -2.2 0.0 57.9
Sat, Feb 16, 2019 14:00 -2.3 0.0 59.1
Sat, Feb 16, 2019 13:00 -2.9 0.0 62.0
Sat, Feb 16, 2019 12:00 -3.4 0.0 63.7
Sat, Feb 16, 2019 11:00 -4.1 0.0 66.8
Sat, Feb 16, 2019 10:00 -4.3 0.0 67.7
Sat, Feb 16, 2019 09:00 -4.5 0.0 67.8
Sat, Feb 16, 2019 08:00 -5.3 0.0 77.0
Sat, Feb 16, 2019 07:00 -5.0 0.0 75.9
Sat, Feb 16, 2019 06:00 -4.4 0.0 86.3
Sat, Feb 16, 2019 05:00 -4.3 0.0 85.2
Sat, Feb 16, 2019 04:00 -4.5 0.0 84.1
Sat, Feb 16, 2019 03:00 -4.7 0.0 83.5
Sat, Feb 16, 2019 02:00 -4.6 0.0 80.0
Sat, Feb 16, 2019 01:00 -4.8 0.0 78.0
Sat, Feb 16, 2019 00:00 -4.9 0.0 75.8
Fri, Feb 15, 2019 23:00 -5.1 0.0 74.7
Fri, Feb 15, 2019 22:00 -5.0 0.0 73.5
Fri, Feb 15, 2019 21:00 -4.5 0.0 72.3
Fri, Feb 15, 2019 20:00 -3.5 0.0 73.4
Fri, Feb 15, 2019 19:00 -3.0 0.0 70.6
Fri, Feb 15, 2019 18:00 -2.5 0.0 71.1
Fri, Feb 15, 2019 17:00 -1.6 0.0 68.9
Fri, Feb 15, 2019 16:00 -1.1 0.0 69.8
Fri, Feb 15, 2019 15:00 -1.0 0.0 79.1
Fri, Feb 15, 2019 14:00 0.0 0.0 73.9
Fri, Feb 15, 2019 13:00 1.1 0.0 67.2
Fri, Feb 15, 2019 12:00 1.5 0.0 70.7
Fri, Feb 15, 2019 11:00 1.9 0.0 77.9
Fri, Feb 15, 2019 10:00 3.1 0.0 86.6
Fri, Feb 15, 2019 09:00 3.0 0.0 94.8
Fri, Feb 15, 2019 08:00 3.0 0.0 95.7
Fri, Feb 15, 2019 07:00 3.3 0.0 95.9
Fri, Feb 15, 2019 06:00 3.0 0.8 98.1
Fri, Feb 15, 2019 05:00 3.1 0.6 94.1
Fri, Feb 15, 2019 04:00 2.9 1.0 87.2
Fri, Feb 15, 2019 03:00 2.5 0.4 79.5
Fri, Feb 15, 2019 02:00 1.1 0.0 84.9
Fri, Feb 15, 2019 01:00 2.1 0.0 74.9
Fri, Feb 15, 2019 00:00 2.3 0.0 71.3
Thu, Feb 14, 2019 23:00 2.0 0.0 70.5
Thu, Feb 14, 2019 22:00 0.8 0.0 75.8
Thu, Feb 14, 2019 21:00 -0.3 0.0 76.0
Thu, Feb 14, 2019 20:00 -1.3 0.0 80.5
Thu, Feb 14, 2019 19:00 -1.4 0.0 81.6
Thu, Feb 14, 2019 18:00 -0.7 0.0 77.9
Thu, Feb 14, 2019 17:00 0.4 0.0 71.2


asterix Register now to access more data! asterix